User: anonymous   Login
Location: Drayton Valley
(53.2170°N, 114.9830°W)
Time: 02:17:13
(UTC-06:00)
Language:

MOZ.5/SAFIR/RUBIN 5/SL-8 - Orbit

View from above orbital plane
View from above orbital plane
View from above satellite
View from above satellite

Ground track
Ground track

The orbit data is extracted from the following two-line orbital elements,

1 28898U 05043G   15213.47839576  .00000202  00000-0  51210-4 0  9995
2 28898 097.8497 025.6654 0019879 180.7644 179.3530 14.59940392519776
Epoch (UTC): 01 August 2015 11:28:53
Eccentricity: 0.0019879
inclination: 97.8497°
perigee height: 679 km
apogee height: 707 km
right ascension of ascending node: 25.6654°
argument of perigee: 180.7644°
revolutions per day: 14.59940392
mean anomaly at epoch: 179.3530°
orbit number at epoch: 51977

The dashed part of the orbit path shows where the satellite is in the earth's shadow,  

DLR